Terminal Aerodrome Forecast
Issued by NWS

Home | Current Version | Previous Version | Text Only | Print | Product List | Glossary On
Versions: 1 2 3 4 5 6 7 8 9 10 11 12 13 14 15 16 17 18 19 20 21 22 23 24 25 26 27
000
FTUS41 KBUF 270700 AAA
TAFIAG
TAF AMD
KIAG 270727Z 2707/2806 01010KT 6SM BR VCSH BKN012 OVC027
     FM270900 34005KT P6SM BKN020
     FM271100 33006KT P6SM BKN050
     FM271500 32008KT P6SM SCT040
     FM272100 30010KT P6SM SCT150
     FM280300 32008KT P6SM SCT250=

USA.gov is the U.S. government's official web portal to all federal, state and local government web resources and services.